Weather Roundup
Issued by NWS Springfield, MO

Home | Current Version | Previous Version | Text Only | Print | Product List | Glossary On
Versions: 1 2 3 4 5 6 7 8 9 10 11 12 13 14 15 16 17 18 19 20 21 22 23 24 25 26 27 28 29 30 31 32 33 34 35 36 37 38 39 40 41 42 43 44 45 46 47 48 49 50
000
NZUS99 KSGF 070907
HRRSGF

HOURLY WEATHER
NATIONAL WEATHER SERVICE SPRINGFIELD MO
400 AM CDT TUE JUL 07 2015

......SGF CWA......

CITY           SKY/WX    TMP DP  RH WIND       PRES   REMARKS
SPRINGFIELD    LGT RAIN  74  72  93 CALM      29.94F
JOPLIN         CLOUDY    73  71  93 SW5       29.94S FOG
WEST PLAINS    CLOUDY    77  71  82 SW9       29.98S
ROLLA          LGT RAIN  70  69  97 SW8       29.94S
OSAGE BEACH    CLOUDY    72  68  88 CALM      29.94S
BRANSON        CLOUDY    77  68  73 CALM      29.96S

......SURROUNDING SGF CWA......

CITY           SKY/WX    TMP DP  RH WIND       PRES   REMARKS
CHANUTE        CLOUDY    72  71  97 NE5       29.93F
PARSONS        CLOUDY    71  71 100 CALM      29.94S
COFFEYVILLE    CLOUDY    72  71  97 CALM      29.92F
EMPORIA        LGT RAIN  63  60  90 NE20G32   29.99R FOG
GROVE OK       CLOUDY    73  73 100 NW6       29.94R
ROGERS AR      CLOUDY    78  70  76 SW13G20   29.95S
SILOAM SPRINGS CLOUDY    77  66  69 S13       29.95S
HARRISON AR    CLOUDY    75  70  84 S7        29.97S
NEAR YELLVILLE MOCLDY    79  70  73 SW6       29.93S

......KANSAS AND MISSOURI......

CITY           SKY/WX    TMP DP  RH WIND       PRES   REMARKS
KANSAS CTY INT LGT RAIN  61  60  97 NE9       30.01R FOG
DOWNTOWN KC    HVY RAIN  62  60  93 NE15      30.00R FOG
COLUMBIA       LGT RAIN  72  71  97 W7        29.92S
SEDALIA        LGT RAIN  73  70  90 N7        29.93F
ST JOSEPH      CLOUDY    67  63  87 MISG      30.02R FOG
ST LOUIS       CLOUDY    81  71  71 W13       29.89R
SPIRIT OF STL  LGT RAIN  76  71  85 W12G23    29.88R
KIRKSVILLE     CLOUDY    65  59  81 N10       29.96S HAZE
WICHITA        LGT RAIN  66  63  90 NE16G25   30.00S FOG
TOPEKA         RAIN      63  62  97 CALM      30.02R FOG
OLATHE         LGT RAIN  63  63 100 N14       29.98R FOG

......TENNESSEE......

CITY           SKY/WX    TMP DP  RH WIND       PRES   REMARKS
MEMPHIS        PTCLDY    78  73  84 S7        30.02R
NASHVILLE      MOCLDY    75  73  93 SW9       30.07R

......ARKANSAS.......

CITY           SKY/WX    TMP DP  RH WIND       PRES   REMARKS
FAYETTEVILLE   CLOUDY    76  70  82 S10       29.95S
FT SMITH       CLOUDY    78  71  79 E3        29.92F
LITTLE ROCK    PTCLDY    78  71  79 SW7       29.99F

......OKLAHOMA.......

CITY           SKY/WX    TMP DP  RH WIND       PRES   REMARKS
TULSA          CLOUDY    74  72  93 N10       29.90R
PONCA CITY     CLOUDY    72  70  93 NW5       29.93R
MCALESTER      CLOUDY    80  71  74 S8        29.95R
OKLAHOMA CITY  CLOUDY    71  70  96 W3        29.93R

......IOWA............

CITY           SKY/WX    TMP DP  RH WIND       PRES   REMARKS
DES MOINES     CLEAR     62  52  69 N15G22    30.01S
QUAD CITIES    CLOUDY    64  58  80 N9        29.91S HAZE

......ILLINOIS........

CITY           SKY/WX    TMP DP  RH WIND       PRES   REMARKS
QUINCY         LGT RAIN  68  67  96 N15       29.89S
CHICAGO        CLOUDY    71  69  93 W6        29.84S



USA.gov is the U.S. government's official web portal to all federal, state and local government web resources and services.